Regional Weather Roundup
Issued by NWS Grand Forks, ND

Home | Current Version | Previous Version | Text Only | Print | Product List | Glossary Off
Versions: 1 2 3 4 5 6 7 8 9 10 11 12 13 14 15 16 17 18 19 20 21 22 23 24 25 26 27 28 29 30 31 32 33 34 35 36 37 38 39 40 41 42 43 44 45 46 47 48 49 50

000
ASUS43 KFGF 181831
RWRFGF
PRAIRIE TO PINES  WEATHER ROUNDUP
NATIONAL WEATHER SERVICE EASTERN NORTH DAKOTA/GRAND FORKS ND
100 PM CDT SAT APR 18 2015

 **SATELLITE DATA USED TO AUGMENT SKY COVER AT AUTOMATED STATIONS**
 *****  WEATHER ACROSS EASTERN NORTH DAKOTA  *****

CITY           SKY/WX    TMP DP  RH WIND       PRES   REMARKS
GRAND FORKS    PTSUNNY   64  29  26 SE7       30.02F
6HR MIN TEMP:  33; 6HR MAX TEMP:  64;

GRAND FRKS AFB SUNNY     63  29  27 S9        30.01F
GRAND FRKS NWS   N/A     63 N/A N/A S6          N/A
DEVILS LAKE    SUNNY     63  30  29 SE10      29.98F
6HR MIN TEMP:  36; 6HR MAX TEMP:  63;

FARGO          MOSUNNY   67  28  23 SE7       30.00F
WAHPETON ARPT  PTCLDY    72  21  15 E14G21    29.98F
$$

 ***** WEATHER ACROSS CENTRAL AND WESTERN NORTH DAKOTA  *****

CITY           SKY/WX    TMP DP  RH WIND       PRES   REMARKS
BISMARCK       CLOUDY    55  30  38 VRB3      29.98F
6HR MIN TEMP:  34; 6HR MAX TEMP:  55;

MINOT          SUNNY     68  25  19 S14       29.92F
6HR MIN TEMP:  30; 6HR MAX TEMP:  68;

JAMESTOWN      CLOUDY    60  29  30 SE7       29.98F
6HR MIN TEMP:  34; 6HR MAX TEMP:  60;

MINOT AFB      SUNNY     69  28  21 S10G18    29.91F
GARRISON         N/A     66  28  24 SE6       29.93F
WILLISTON      SUNNY     70  37  29 SW14G28   29.89F
6HR MIN TEMP:  36; 6HR MAX TEMP:  71;

DICKINSON      SUNNY     67  33  28 SW13G22   29.92F
6HR MIN TEMP:  33; 6HR MAX TEMP:  68;

HETTINGER      CLOUDY    56  41  57 CALM      29.98F
6HR MIN TEMP:  30; 6HR MAX TEMP:  56;

$$

 *****  OTHER AIRPORT OBSERVATIONS IN OUR AREA  *****

CITY           SKY/WX    TMP DP  RH WIND       PRES   REMARKS
WALHALLA       FAIR      59  30  33 SE18      30.01F
GRAFTON AIRPOR FAIR      63  28  27 SE9       30.02F
VALLEY CITY AR MOCLDY    64  30  27 SE12      29.99F
CANDO          FAIR      64  28  25 S9G18     29.99F
CAVALIER APRT  FAIR      59  32  36 S13       30.02F
GWINNER        CLEAR     70  32  24 SE15G21   29.97F
SHEYENNE NWR     N/A     70  27  20 SE12      29.95
ROLLA          FAIR      63  27  25 S15G23    29.98F
 ***** THE ABOVE OBSERVATIONS ARE NON NWS ARE NOT QUALITY
       CONTROLLED AND MAY MIS-REPORT RAIN FOR SNOW...
$$

  *****  WEATHER ACROSS NORTHERN MINNESOTA  *****

CITY           SKY/WX    TMP DP  RH WIND       PRES   REMARKS
FLAG ISLAND    SUNNY     45  28  53 SE7       30.11F
WARROAD        SUNNY     52  30  43 E10       30.08F
ROSEAU         SUNNY     61  21  21 SE12G18   30.07F
HALLOCK        SUNNY     63  21  20 SE10G16   30.03F
THF RVR FALLS  MOSUNNY   61  27  27 E9G16     30.05F
6HR MIN TEMP:  36; 6HR MAX TEMP:  61;

BAUDETTE       SUNNY     58  22  24 SE12G21   30.11F
6HR MIN TEMP:  33; 6HR MAX TEMP:  59;

WASKISH        SUNNY     61  28  29 SE13      30.08F
CROOKSTON      SUNNY     64  28  25 SE7       30.03F
STEPHEN NDAWN    N/A     61  28  29 SE10        N/A
GREENBUSH NDAW   N/A     59  27  29 S12         N/A
$$
  *****  WEATHER ACROSS CENTRAL AND WEST MINNESOTA  *****

CITY           SKY/WX    TMP DP  RH WIND       PRES   REMARKS
FOSSTON        SUNNY     63  28  27 E7        30.04F
BEMIDJI        SUNNY     59  29  32 SE9G17    30.07F
PARK RAPIDS    SUNNY     60  29  30 E13       30.06F
6HR MIN TEMP:  42; 6HR MAX TEMP:  60;

ELBOW LAKE     FAIR      68  31  26 SE14      29.99F
6HR MIN TEMP:  46; 6HR MAX TEMP:  67;

WADENA         SUNNY     63  34  34 E10G18    30.03F
DETROIT LAKES  SUNNY     63  32  31 SE12G18   30.03F
MOORHEAD       MOSUNNY   68  28  22 E8        30.00F
FERGUS FALLS   SUNNY     66  23  19 SE9G17    30.00F
MORRIS MN      SUNNY     73  28  19 SE16G22   29.97F
STAPLES        SUNNY     61  28  29 E9        30.05F
$$
  *****  WEATHER ELSEWHERE ACROSS MINNESOTA  *****

CITY           SKY/WX    TMP DP  RH WIND       PRES   REMARKS
DULUTH         SUNNY     48  32  53 E20G26    30.16F
6HR MIN TEMP:  39; 6HR MAX TEMP:  49;

INTRNTL FALLS  SUNNY     56  19  23 SE13      30.13F
6HR MIN TEMP:  28; 6HR MAX TEMP:  57;

ELY            SUNNY     55  16  21 SE15      30.17F
CLOQUET        SUNNY     48  30  49 E16G23    30.15F
WHEATON        SUNNY     70  30  23 SE13G21   29.98F
BRAINERD       SUNNY     58  28  32 E9G16     30.09F
6HR MIN TEMP:  40; 6HR MAX TEMP:  60;

HIBBING        SUNNY     57  22  25 E14G25    30.15F
6HR MIN TEMP:  34; 6HR MAX TEMP:  57;

ALEXANDRIA     SUNNY     66  31  27 SE13      30.03F
6HR MIN TEMP:  44; 6HR MAX TEMP:  66;

SAINT CLOUD    SUNNY     64  32  30 E8G20     30.04F
6HR MIN TEMP:  46; 6HR MAX TEMP:  65;

MINNEAPOLIS    MOSUNNY   69  35  28 E14       30.03F
6HR MIN TEMP:  53; 6HR MAX TEMP:  69;

$$

  *****  WEATHER ACROSS SOUTH DAKOTA  *****

CITY           SKY/WX    TMP DP  RH WIND       PRES   REMARKS
SIOUX FALLS    CLOUDY    62  41  46 SE10      29.93S
6HR MIN TEMP:  51; 6HR MAX TEMP:  63; 6HR PCP:  0.02;

BROOKINGS      CLOUDY    68  32  26 SE18G24   29.94F
WATERTOWN      MOSUNNY   71  26  18 SE14G24   29.95F
6HR MIN TEMP:  49; 6HR MAX TEMP:  71;

HURON          CLOUDY    68  34  28 S13G18    29.91F
6HR MIN TEMP:  50; 6HR MAX TEMP:  69;

SISSETON         N/A     69  28  21 S13G18    29.97F
ABERDEEN       CLOUDY    71  24  17 E14       29.94F
6HR MIN TEMP:  42; 6HR MAX TEMP:  72;

MITCHELL       LGT RAIN  56  46  69 S8        29.94F
PIERRE         LGT RAIN  57  35  43 E9        29.91F
6HR MIN TEMP:  49; 6HR MAX TEMP:  57; 6HR PCP:  0.02;

MOBRIDGE       CLOUDY    63  26  24 S9        29.94F
RAPID CITY     LGT RAIN  48  44  86 N14       29.95F
6HR MIN TEMP:  47; 6HR MAX TEMP:  52; 6HR PCP:  0.04;

$$

  *****  SOME WEATHER IN NEARBY STATES *****

CITY           SKY/WX    TMP DP  RH WIND       PRES   REMARKS
GLASGOW MT     MOSUNNY   57  35  43 NW25G38   30.03R
6HR MIN TEMP:  38; 6HR MAX TEMP:  58;

GREAT FALLS MT LGT SNOW  34  33  96 N10       30.30R FOG
6HR MIN TEMP:  33; 6HR MAX TEMP:  45; 6HR PCP:  0.14;

CHEYENNE WY    CLOUDY    39  34  82 N8        29.93S
6HR MIN TEMP:  35; 6HR MAX TEMP:  40;

SCOTTSBLUFF NE MOSUNNY   53  32  44 E6        29.91F
6HR MIN TEMP:  43; 6HR MAX TEMP:  52;

OMAHA NE       LGT RAIN  62  59  90 SE6       29.90S
6HR MIN TEMP:  61; 6HR MAX TEMP:  65; 6HR PCP:  0.51;

DES MOINES IA  CLOUDY    74  56  53 SE14G22   29.90F
6HR MIN TEMP:  62; 6HR MAX TEMP:  74; 6HR PCP:  0.01;

DAVENPORT IA   CLOUDY    76  52  43 SE16      30.00F
6HR MIN TEMP:  53; 6HR MAX TEMP:  78;

CHICAGO IL     PTSUNNY   57  38  48 NE16      30.09S
6HR MIN TEMP:  54; 6HR MAX TEMP:  64;

EAU CLAIRE WI  MOSUNNY   68  31  25 NE13G18   30.07F
6HR MIN TEMP:  47; 6HR MAX TEMP:  69;

LA CROSSE WI   MOSUNNY   73  33  23 E9G21     30.04F
6HR MIN TEMP:  48; 6HR MAX TEMP:  73;

$$

  *****  SOME NATIONAL WEATHER *****

CITY           SKY/WX    TMP DP  RH WIND       PRES   REMARKS
LA GUARDIA NY  PTSUNNY   75  37  25 NW6G16    29.91F
6HR MIN TEMP:  60; 6HR MAX TEMP:  75;

RALEIGH NC     PTSUNNY   79  59  50 E7        29.98F
6HR MIN TEMP:  63; 6HR MAX TEMP:  80;

ATLANTA GA     CLOUDY    72  63  73 SE7       29.97F
6HR MIN TEMP:  63; 6HR MAX TEMP:  71; 6HR PCP: TRACE;

NEW ORLEANS LA CLOUDY    74  68  81 SE10      29.88F
6HR MIN TEMP:  70; 6HR MAX TEMP:  74; 6HR PCP:  0.67;

OKLAHOMA CITY  PTSUNNY   74  60  61 SE12      29.89F
6HR MIN TEMP:  56; 6HR MAX TEMP:  74;

ALBUQUERQUE NM PTSUNNY   52  27  38 N9        30.01F
6HR MIN TEMP:  37; 6HR MAX TEMP:  53;

SALT LAKE CITY MOSUNNY   60  37  42 NW10      30.04S
6HR MIN TEMP:  42; 6HR MAX TEMP:  60;




USA.gov is the U.S. government's official web portal to all federal, state and local government web resources and services.